Regional Weather Roundup
Issued by NWS

Home | Current Version | Previous Version | Text Only | Print | Product List | Glossary On
Versions: 1 2 3 4 5 6 7 8 9 10 11 12 13 14 15 16 17 18 19 20 21 22 23 24 25 26 27 28 29 30 31 32 33 34 35 36 37 38 39 40 41 42 43 44 45 46 47 48 49 50
000
ASUS43 KTOP 221959
RWRKS

WEATHER ROUNDUP FOR KANSAS
NATIONAL WEATHER SERVICE GOODLAND KS
200 PM CST WED FEB 22 2017

NOTE:  "FAIR" INDICATES FEW OR NO CLOUDS BELOW 12,000 FEET WITH NO
SIGNIFICANT WEATHER AND/OR OBSTRUCTIONS TO VISIBILITY.

KSZ001>006-013>018-027>032-041>047-222100-
NORTHWEST KANSAS

CITY           SKY/WX    TMP DP  RH WIND       PRES   REMARKS
GOODLAND       SUNNY     63  21  20 N8G17     29.80F
HAYS             N/A     69  34  27 N5        29.75F
HILL CITY      SUNNY     73  27  18 VRB7G17   29.75F
RUSSELL        CLOUDY    73  32  22 N12       29.71F
$$

KSZ061>065-074>080-084>089-222100-
SOUTHWEST KANSAS

CITY           SKY/WX    TMP DP  RH WIND       PRES   REMARKS
DODGE CITY     SUNNY     75  28  17 NW10      29.77F
ELKHART          N/A     77  27  16 E7          N/A
GARDEN CITY    SUNNY     72  27  18 NW10      29.78F
GREAT BEND     SUNNY     74  32  21 NW8       29.73F
LIBERAL        SUNNY     75  27  16 NW12G18   29.81F
$$

KSZ066>073-081>083-090>101-222100-
SOUTHEAST KANSAS

CITY           SKY/WX    TMP DP  RH WIND       PRES   REMARKS
CHANUTE        SUNNY     79  36  21 SW18G24   29.71F
COFFEYVILLE    SUNNY     78  42  27 S18       29.71F
HUTCHINSON     SUNNY     78  25  14 NW8       29.70F
MEDICINE LODGE   N/A     82  27  13 N9        29.70F
NEWTON         SUNNY     76  34  21 W7        29.71F
PARSONS        SUNNY     78  39  24 S15G24    29.72F
WICHITA INTL   MOSUNNY   73  44  35 SW10      29.70F
WICHITA JABRA  SUNNY     73  43  33 SW9       29.71F
WINFIELD       SUNNY     76  44  32 S12       29.72F
$$

KSZ007>012-019>026-033>040-048>060-102>105-222100-
NORTHEAST KANSAS

CITY           SKY/WX    TMP DP  RH WIND       PRES   REMARKS
CONCORDIA      SUNNY     75  35  23 W9        29.67F
EMPORIA        SUNNY     78  34  20 SW13G18   29.68F
LAWRENCE       SUNNY     78  35  21 SW17G23   29.65F
MANHATTAN      SUNNY     77  37  23 VRB7      29.66F
OLATHE IND     SUNNY     76  37  24 SW12G24   29.68F
OLATHE EXE     MOSUNNY   74  37  26 S15G21    29.68F
SALINA         SUNNY     78  28  16 W9        29.69F
TOPEKA BILLARD SUNNY     77  36  22 SW8       29.65F
TOPEKA FORBES  SUNNY     78  36  21 SW10      29.66F
$$




USA.gov is the U.S. government's official web portal to all federal, state and local government web resources and services.